Regional Weather Roundup
Issued by NWS

Home | Current Version | Previous Version | Graphics & Text | Print | Product List | Glossary On
Versions: 1 2 3 4 5 6 7 8 9 10 11 12 13 14 15 16 17 18 19 20 21 22 23 24 25 26 27 28 29 30 31 32 33 34 35 36 37 38 39 40 41 42 43 44 45 46 47 48 49 50
000
ASUS43 KLSX 211059
RWRMO

WEATHER SUMMARY FOR MISSOURI
NATIONAL WEATHER SERVICE SPRINGFIELD MO
600 AM CDT TUE OCT 21 2014

NOTE: "FAIR" INDICATES FEW OR NO CLOUDS BELOW 12,000 FEET WITH NO
       SIGNIFICANT WEATHER AND/OR OBSTRUCTIONS TO VISIBILITY.
       CURRENT SKY AND/OR WEATHER CONDITIONS ARE NOT AVAILABLE FOR
       CHILLICOTHE AND FARMINGTON.

MOZ001>031-035>038-043-044-053-054-211200-
...NORTHERN AND WESTERN MISSOURI...

CITY           SKY/WX    TMP DP  RH WIND       PRES   REMARKS
KANSAS CTY INT CLEAR     49  45  86 CALM      30.11R
KANSAS C DTWN  CLEAR     45  43  93 CALM      30.11R
LEE`S SUMMIT   CLEAR     49  43  80 SW3       30.11R
ST JOSEPH      CLEAR     35  35 100 CALM      30.11S
KIRKSVILLE     CLEAR     43  40  89 N3        30.10R

$$
MOZ066>068-077>081-088>096-101>105-211200-
...SOUTHWEST MISSOURI...

CITY           SKY/WX    TMP DP  RH WIND       PRES   REMARKS
SPRINGFIELD    CLEAR     45  42  89 S3        30.10R
JOPLIN         CLEAR     49  49 100 S3        30.10R FOG

$$
MOZ032>034-039>042-045>050-055>058-069>072-211200-
...CENTRAL MISSOURI...

CITY           SKY/WX    TMP DP  RH WIND       PRES   REMARKS
COLUMBIA       CLEAR     47  42  83 NW6       30.09R
JEFFERSON CITY CLEAR     42  41  96 CALM      30.09R
ROLLA          CLEAR     46  41  82 SW3       30.07R
SEDALIA        CLEAR     48  43  82 W3        30.10R
OSAGE BEACH    CLEAR     41  37  87 CALM      30.09R

$$
MOZ051-052-059>065-211200-
...EAST CENTRAL MISSOURI...

CITY           SKY/WX    TMP DP  RH WIND       PRES   REMARKS
ST LOUIS INTL  CLEAR     49  43  80 CALM      30.07R
SPIRIT OF STL  CLEAR     42  41  96 CALM      30.07R
ST CHARLES     CLEAR     42  41  96 CALM      30.07R

$$
MOZ072>076-082>087-097>100-106>115-211200-
...SOUTH CENTRAL AND SOUTHEAST MISSOURI...

CITY           SKY/WX    TMP DP  RH WIND       PRES   REMARKS
CAPE GIRARDEAU CLEAR     43  42  97 CALM      30.06R
FARMINGTON     CLEAR     43  39  87 CALM      30.09R
WEST PLAINS    CLEAR     43  41  93 CALM      30.10R

$$



USA.gov is the U.S. government's official web portal to all federal, state and local government web resources and services.